LROP Weather Reports


time (UTC)temp
C
wind
direction
speed
KPH
gust
KPH
rain 1hr
cm
rain 24hr
cm
rain mn
cm
humidity
%
barometer
mb
20260508011802 12 60 8.0 0.0 0.00 0.00 0.00 88 1015.0
20260508010302 12 60 8.0 0.0 0.00 0.00 0.00 88 1015.0
20260508004802 13 60 9.7 0.0 0.00 0.00 0.00 88 1015.0
20260508003302 13 60 9.7 0.0 0.00 0.00 0.00 88 1015.0
20260508001801 13 40 11.3 0.0 0.00 0.00 0.00 88 1015.0
20260508000304 13 40 11.3 0.0 0.00 0.00 0.00 88 1015.0
20260507234803 15 40 12.9 0.0 0.00 0.00 0.00 82 1015.0
20260507233302 15 40 12.9 0.0 0.00 0.00 0.00 82 1015.0
20260507231802 15 60 8.0 0.0 0.00 0.00 0.00 82 1015.0
20260507230302 15 60 8.0 0.0 0.00 0.00 0.00 82 1015.0
20260507224802 16 60 8.0 0.0 0.00 0.00 0.00 83 1015.0
20260507223416 16 60 8.0 0.0 0.00 0.00 0.00 83
20260507221802 17 20 11.3 0.0 0.00 0.00 0.00 77 1015.0
20260507220301 17 20 11.3 0.0 0.00 0.00 0.00 77 1015.0
20260507214802 17 310 8.0 0.0 0.00 0.00 0.00 83 1015.0
20260507213303 17 310 8.0 0.0 0.00 0.00 0.00 83 1015.0
20260507211802 17 1.6 0.0 0.00 0.00 0.00 83 1015.0
20260507210302 17 1.6 0.0 0.00 0.00 0.00 83 1015.0
20260507204802 17 110 4.8 0.0 0.00 0.00 0.00 83 1015.0
20260507203302 17 110 4.8 0.0 0.00 0.00 0.00 83 1015.0
20260507201802 17 90 4.8 0.0 0.00 0.00 0.00 78 1015.0
20260507200302 17 90 4.8 0.0 0.00 0.00 0.00 78 1015.0
20260507194808 17 0 0.0 0.0 0.00 0.00 0.00 73 1015.0
20260507193302 17 0 0.0 0.0 0.00 0.00 0.00 73 1015.0
20260507191802 17 80 9.7 0.0 0.00 0.00 0.00 78 1015.0
20260507190303 17 80 9.7 0.0 0.00 0.00 0.00 78 1015.0
20260507184804 17 100 9.7 0.0 0.00 0.00 0.00 78 1015.0
20260507183302 17 100 9.7 0.0 0.00 0.00 0.00 78 1015.0
20260507181802 20 80 14.5 0.0 0.00 0.00 0.00 64 1014.0
20260507180302 20 80 14.5 0.0 0.00 0.00 0.00 64 1014.0
20260507174801 20 100 8.0 0.0 0.00 0.00 0.00 56 1014.0
20260507173302 20 100 8.0 0.0 0.00 0.00 0.00 56 1014.0
20260507171803 21 100 8.0 0.0 0.00 0.00 0.00 57 1014.0
20260507170302 21 100 8.0 0.0 0.00 0.00 0.00 57 1014.0
20260507164802 22 80 8.0 0.0 0.00 0.00 0.00 47 1014.0
20260507163302 22 80 8.0 0.0 0.00 0.00 0.00 47 1014.0
20260507161802 22 80 9.7 0.0 0.00 0.00 0.00 53 1014.0
20260507160302 22 80 9.7 0.0 0.00 0.00 0.00 53 1014.0
20260507154802 23 90 12.9 0.0 0.00 0.00 0.00 44 1014.0
20260507153303 23 90 12.9 0.0 0.00 0.00 0.00 44 1014.0
20260507151802 23 80 16.1 0.0 0.00 0.00 0.00 41 1014.0
20260507150301 23 80 16.1 0.0 0.00 0.00 0.00 41 1014.0
20260507144802 23 80 17.7 0.0 0.00 0.00 0.00 41 1014.0
20260507143304 23 80 17.7 0.0 0.00 0.00 0.00 41 1014.0
20260507141802 23 110 11.3 0.0 0.00 0.00 0.00 39 1014.0
20260507140302 23 110 11.3 0.0 0.00 0.00 0.00 39 1014.0
20260507134802 26 110 12.9 0.0 0.00 0.00 0.00 34 1015.0
20260507133302 26 110 12.9 0.0 0.00 0.00 0.00 34 1015.0
20260507131802 25 110 11.3 0.0 0.00 0.00 0.00 34 1015.0
20260507130302 25 110 11.3 0.0 0.00 0.00 0.00 34 1015.0
20260507124802 25 100 12.9 0.0 0.00 0.00 0.00 34 1015.0
20260507123340 25 100 12.9 0.0 0.00 0.00 0.00 34 1015.0
20260507121802 25 90 14.5 0.0 0.00 0.00 0.00 36 1015.0
20260507120302 25 90 14.5 0.0 0.00 0.00 0.00 36 1015.0
20260507114802 25 110 12.9 0.0 0.00 0.00 0.00 36 1015.0
20260507113315 23 80 14.5 0.0 0.00 0.00 0.00 36 1016.0
20260507111802 23 80 14.5 0.0 0.00 0.00 0.00 36 1016.0
20260507110302 23 80 14.5 0.0 0.00 0.00 0.00 36 1016.0
20260507104801 23 70 12.9 0.0 0.00 0.00 0.00 39 1016.0
20260507103302 23 70 12.9 0.0 0.00 0.00 0.00 39 1016.0
20260507101801 22 70 12.9 0.0 0.00 0.00 0.00 44 1016.0
20260507100302 22 70 12.9 0.0 0.00 0.00 0.00 44 1016.0
20260507094802 22 80 11.3 0.0 0.00 0.00 0.00 38 1016.0
20260507093302 22 80 11.3 0.0 0.00 0.00 0.00 38 1016.0
20260507091803 21 80 11.3 0.0 0.00 0.00 0.00 46 1016.0
20260507090302 21 80 11.3 0.0 0.00 0.00 0.00 46 1016.0
20260507084802 20 90 14.5 0.0 0.00 0.00 0.00 49 1016.0
20260507083302 20 90 14.5 0.0 0.00 0.00 0.00 49 1016.0
20260507081802 18 90 14.5 0.0 0.00 0.00 0.00 52 1016.0
20260507080303 18 90 14.5 0.0 0.00 0.00 0.00 52 1016.0
20260507074802 17 90 11.3 0.0 0.00 0.00 0.00 56 1016.0
20260507073302 17 90 11.3 0.0 0.00 0.00 0.00 56 1016.0
20260507071802 17 90 11.3 0.0 0.00 0.00 0.00 64 1016.0
20260507070302 17 90 11.3 0.0 0.00 0.00 0.00 64 1016.0
20260507064802 15 90 11.3 0.0 0.00 0.00 0.00 68 1016.0
20260507063302 15 90 11.3 0.0 0.00 0.00 0.00 68 1016.0
20260507061814 13 80 11.3 0.0 0.00 0.00 0.00 72 1016.0
20260507060302 13 80 11.3 0.0 0.00 0.00 0.00 72 1016.0
20260507054802 12 70 11.3 0.0 0.00 0.00 0.00 82 1016.0
20260507053309 12 70 11.3 0.0 0.00 0.00 0.00 82 1016.0
20260507051802 11 70 12.9 0.0 0.00 0.00 0.00 82 1016.0
20260507050302 11 70 12.9 0.0 0.00 0.00 0.00 82 1016.0
20260507044802 10 60 11.3 0.0 0.00 0.00 0.00 88 1016.0
20260507043302 10 60 11.3 0.0 0.00 0.00 0.00 88 1016.0
20260507041802 10 40 9.7 0.0 0.00 0.00 0.00 88 1016.0
20260507040302 10 40 9.7 0.0 0.00 0.00 0.00 88 1016.0
20260507034802 10 40 8.0 0.0 0.00 0.00 0.00 88 1016.0
20260507033301 10 40 8.0 0.0 0.00 0.00 0.00 88 1016.0
20260507031802 8 30 4.8 0.0 0.00 0.00 0.00 87 1016.0
20260507030302 8 40 8.0 0.0 0.00 0.00 0.00 87 1016.0
20260507024802 8 70 8.0 0.0 0.00 0.00 0.00 87 1016.0
20260507023301 8 70 8.0 0.0 0.00 0.00 0.00 87 1016.0
20260507021802 8 60 11.3 0.0 0.00 0.00 0.00 94 1016.0
20260507020302 8 60 11.3 0.0 0.00 0.00 0.00 94 1016.0
20260507014802 8 60 8.0 0.0 0.00 0.00 0.00 87 1016.0
20260507013301 8 60 8.0 0.0 0.00 0.00 0.00 87 1016.0